Temp
56 56 56 56 57 57 57 57 57 56 57 57 57 57 58 58 57 55 58 65 65 60 64 70 74 67 69 68 61 68 69 70 66 60 59 61 61 65 62 64 62 60 58 59 59 51 51 72 71 61 61 65 68 70
56 56 56 56 56 56 56 56 57 56 57 57 57 57 57 57 57 56 58 67 70 62 63 72 73 75 75 75 68 69 66 66 66 61 62 62 61 63 60 56 68 59 62 58 61 58 65 70 67 69 69 66 68 69
56 56 56 56 56 57 56 56 56 57 57 57 57 57 57 57 56 55 54 60 62 62 66 69 70 80 84 83 83 63 67 72 69 70 62 61 58 62 56 59 62 66 69 61 62 62 67 70 71 72 72 71 73 73
56 55 55 55 55 55 55 56 56 56 57 56 56 57 57 56 55 55 53 60 61 63 58 69 84 78 86 84 82 79 75 76 74 68 61 59 58 66 61 64 62 66 65 63 62 63 66 69 69 70 73 75 75 75
55 55 55 55 55 55 55 55 55 55 56 56 56 56 56 55 55 55 57 60 64 60 56 60 71 79 84 81 80 78 75 71 66 62 61 60 65 64 64 65 62 67 62 58 55 63 62 64 70 73 71 72 73 71
54 54 55 55 55 55 55 55 55 55 55 55 55 55 55 54 54 55 60 65 67 68 59 56 73 75 80 80 77 74 72 69 67 63 63 66 73 65 58 56 66 70 70 70 63 69 69 69 73 75 71 73 75 71
54 54 54 55 55 55 55 55 54 55 55 55 54 54 54 54 54 57 59 62 56 63 59 58 63 76 80 77 73 71 73 68 67 64 63 64 65 65 60 56 66 69 71 70 71 69 65 70 67 72 73 75 76 75
54 54 54 54 54 55 55 54 54 54 54 54 54 54 54 54 52 58 64 60 58 61 62 56 61 68 78 68 64 72 67 67 65 64 66 63 66 64 57 65 67 69 70 69 69 70 69 69 69 70 72 72 70 65
54 54 54 54 54 54 54 54 54 54 54 54 54 54 58 56 63 65 62 60 64 61 55 60 58 58 74 69 69 69 70 61 68 62 64 64 60 56 62 63 64 67 65 66 69 70 70 68 67 68 69 69 67 65
54 54 54 54 54 54 54 54 54 53 53 54 55 61 60 64 60 61 61 60 60 62 60 56 65 59 68 66 64 63 65 60 56 62 67 61 59 68 71 68 67 68 68 69 64 62 64 63 64 65 66 68 68 66
54 53 53 53 53 54 54 54 53 53 56 65 60 59 64 61 66 64 59 57 59 57 61 62 62 60 70 61 60 63 59 60 54 59 60 58 56 61 67 67 69 69 70 69 68 68 68 66 64 64 64 66 66 64
53 53 53 53 53 53 53 53 53 57 59 54 52 55 61 63 61 58 55 61 59 57 64 62 62 64 65 66 61 61 57 59 55 64 59 54 57 64 66 68 68 68 70 70 71 68 69 68 66 64 64 63 63 63
53 53 53 53 54 54 53 53 53 53 54 61 54 55 59 57 44 52 51 55 55 57 61 64 62 63 63 65 61 59 56 54 63 56 55 53 59 63 63 65 66 68 69 69 68 69 67 67 67 65 63 63 63 62
53 53 53 53 53 53 54 54 54 55 55 57 55 40 53 53 57 59 59 57 64 61 56 53 58 58 62 59 60 54 58 60 53 51 53 56 60 60 63 65 64 64 66 66 65 66 65 65 64 64 64 62 62 60
53 53 53 53 55 56 55 54 54 57 58 56 57 41 55 63 61 64 66 62 66 63 57 52 54 59 53 55 58 57 53 51 54 51 55 59 61 62 62 64 63 63 63 63 64 63 62 63 61 60 62 61 60 60
53 52 55 56 55 55 54 56 58 60 59 55 55 54 60 59 60 63 62 60 63 63 63 58 55 53 54 55 55 53 55 52 53 59 61 61 61 62 63 63 63 63 63 62 62 62 62 60 59 58 60 59 58 59
52 53 56 55 54 54 54 56 57 54 54 55 53 61 60 59 58 59 62 59 62 56 51 52 48 51 52 51 55 58 55 56 60 60 62 60 61 61 62 63 63 62 61 60 60 60 59 60 60 58 56 55 56 58
49 55 53 53 53 55 57 55 52 52 49 55 54 58 61 58 58 62 61 59 57 53 52 49 52 52 52 53 55 58 58 58 62 62 62 62 63 63 64 62 62 62 61 60 60 59 59 58 56 55 55 56 56 56
52 53 53 52 52 49 48 51 53 46 53 58 60 61 59 60 60 62 60 62 64 61 53 51 48 48 48 51 58 56 59 60 58 62 62 63 63 63 63 64 62 62 60 59 58 57 57 56 55 55 54 55 54 55
52 52 52 52 52 46 45 47 53 48 48 55 58 57 57 56 60 64 59 61 60 60 55 52 52 56 56 56 61 61 61 64 64 61 60 62 64 64 64 63 62 62 61 60 60 56 58 55 56 55 55 55 55 55
51 53 53 51 48 47 44 46 46 49 51 51 58 57 55 58 58 59 59 63 56 55 56 60 58 60 62 60 62 62 60 61 63 63 61 62 63 64 64 65 64 64 62 63 62 59 59 57 57 58 58 56 57 58
50 53 49 50 46 46 44 48 48 51 48 53 55 57 56 54 54 55 58 54 56 58 61 62 63 64 63 60 60 62 60 60 60 64 60 60 64 64 65 66 66 64 65 64 64 63 63 65 64 62 62 62 59 62
51 50 48 47 43 41 40 51 44 48 44 49 55 53 55 56 58 63 54 58 59 63 64 65 64 65 65 63 62 63 62 58 59 66 66 68 68 68 68 68 68 67 66 66 66 66 65 61 59 63 64 65 64 64
50 46 43 42 41 39 47 43 46 46 48 47 47 50 54 56 60 57 53 58 63 64 64 62 66 63 64 64 61 61 64 65 63 67 68 69 67 67 69 70 71 70 71 70 69 67 68 67 64 66 68 68 66 66
39 40 40 36 44 41 41 44 45 44 43 47 47 49 53 59 50 52 54 59 57 59 60 63 62 65 66 67 66 66 66 66 67 66 69 71 70 70 70 71 71 72 73 71 68 69 68 69 69 70 71 70 69 68
34 41 38 43 43 41 44 41 43 44 45 45 48 54 55 52 50 51 54 55 59 58 58 58 59 57 60 67 68 68 67 70 70 69 72 75 75 73 70 69 69 69 74 74 72 71 71 71 71 72 70 69 58 70
35 39 46 54 48 46 43 45 46 43 43 45 51 52 49 47 50 53 58 60 59 57 57 57 58 60 59 61 66 71 76 76 73 71 75 76 78 77 76 71 70 71 76 76 75 75 74 74 73 73 73 73 72 72
42 46 44 48 47 50 44 44 44 45 48 55 52 48 49 47 49 57 54 61 64 64 61 59 59 59 59 62 66 75 74 74 76 78 77 80 78 75 75 74 71 60 73 71 73 74 75 75 75 75 75 73 71 73
42 49 51 46 47 46 44 44 47 55 53 54 51 49 49 54 62 60 62 66 68 66 63 55 56 58 61 67 68 71 71 76 72 70 70 70 69 67 72 71 71 74 71 71 58 60 62 73 74 73 74 73 73 73
48 53 47 49 47 46 51 53 53 58 61 61 63 62 63 63 66 71 70 70 70 68 68 69 64 58 61 66 68 71 76 81 80 77 72 71 70 72 69 67 68 71 63 63 69 71 62 61 61 70 71 72 72 72
53 51 49 50 49 54 58 61 62 62 62 61 63 61 60 64 69 72 72 72 73 73 72 71 67 67 68 69 71 72 74 80 81 78 80 80 76 74 74 71 70 71 71 70 70 67 71 71 73 72 72 72 73 69
52 50 49 47 50 58 61 58 58 58 60 59 60 64 65 64 62 68 74 73 72 71 67 69 69 67 65 67 72 71 58 76 79 78 77 78 78 76 77 76 73 67 62 67 70 71 68 68 73 73 73 73 72 73
52 52 53 51 53 53 57 58 57 58 60 60 62 65 65 64 61 69 77 78 75 75 74 75 76 78 78 78 74 68 63 76 59 47 46 55 59 64 76 79 71 73 70 67 70 67 71 71 71 72 73 73 73 73
MSLP
1026.09 1025.69 1025.21 1024.78 1024.33 1023.85 1023.36 1022.94 1022.50 1022.00 1021.54 1021.11 1020.73 1020.31 1019.82 1019.38 1018.98 1018.57 1016.63 1015.34 1014.82 1013.63 1011.16 1009.94 1009.14 1008.66 1007.88 1007.23 1007.10 1006.35 1005.31 1005.05 1004.67 1005.36 1005.82 1005.64 1004.85 1003.77 1003.15 1002.62 1002.26 1002.28 1002.68 1003.34 1004.37 1004.75 1004.96 1004.03 1003.92 1005.17 1006.63 1006.50 1006.59 1006.26
1025.93 1025.59 1025.16 1024.66 1024.23 1023.73 1023.23 1022.75 1022.31 1021.83 1021.35 1020.88 1020.47 1020.13 1019.77 1019.38 1019.06 1018.72 1017.02 1015.26 1014.59 1013.98 1011.70 1009.98 1009.34 1008.77 1008.38 1007.71 1007.57 1007.03 1006.97 1006.43 1006.13 1006.34 1006.61 1006.25 1005.48 1004.70 1004.36 1003.84 1002.99 1003.54 1003.97 1004.42 1004.77 1005.06 1005.38 1005.62 1006.44 1006.68 1006.49 1006.59 1006.43 1006.29
1025.79 1025.36 1024.99 1024.50 1024.05 1023.56 1023.06 1022.57 1022.11 1021.63 1021.12 1020.65 1020.22 1019.85 1019.53 1019.26 1019.07 1019.00 1018.03 1016.43 1015.46 1013.44 1010.57 1009.15 1007.63 1006.18 1006.91 1006.77 1006.89 1007.40 1007.00 1006.74 1006.78 1006.64 1007.00 1006.73 1006.25 1005.43 1005.31 1004.78 1004.32 1004.31 1004.27 1004.89 1005.30 1006.63 1006.19 1006.56 1006.70 1006.71 1006.52 1006.33 1006.06 1006.07
1025.54 1025.14 1024.75 1024.34 1023.89 1023.46 1022.94 1022.34 1021.84 1021.37 1020.84 1020.35 1019.87 1019.48 1019.18 1018.91 1018.73 1018.64 1018.03 1016.67 1015.97 1014.05 1011.71 1007.82 1006.45 1006.16 1005.76 1005.87 1006.15 1006.51 1006.79 1006.87 1006.87 1006.86 1007.21 1007.08 1006.74 1005.58 1005.37 1005.00 1004.91 1004.71 1004.70 1005.27 1005.86 1006.27 1006.22 1006.55 1006.86 1006.82 1006.49 1006.01 1005.86 1005.85
1025.28 1024.91 1024.46 1024.06 1023.63 1023.17 1022.71 1022.14 1021.59 1021.07 1020.49 1019.95 1019.45 1019.01 1018.68 1018.44 1018.19 1017.87 1017.18 1016.07 1015.36 1015.05 1012.89 1010.17 1008.02 1005.84 1005.66 1005.63 1006.00 1006.34 1006.66 1007.00 1007.33 1007.45 1007.31 1007.08 1006.15 1005.88 1005.58 1005.46 1005.64 1005.56 1005.76 1006.03 1007.10 1007.05 1007.06 1006.91 1006.39 1006.10 1006.20 1006.11 1005.85 1005.73
1024.96 1024.64 1024.18 1023.80 1023.36 1022.88 1022.35 1021.83 1021.27 1020.68 1020.08 1019.55 1018.98 1018.46 1018.10 1017.91 1017.79 1017.36 1015.84 1014.95 1014.70 1013.96 1013.42 1010.86 1007.57 1005.77 1005.30 1005.51 1005.93 1006.33 1006.68 1006.90 1007.22 1007.40 1007.08 1006.45 1005.69 1005.75 1006.20 1006.38 1006.05 1006.03 1006.10 1006.33 1006.86 1006.78 1006.96 1006.91 1006.71 1006.60 1006.50 1006.23 1005.95 1005.96
1024.70 1024.32 1023.87 1023.48 1023.02 1022.54 1022.01 1021.45 1020.86 1020.20 1019.52 1018.90 1018.37 1017.85 1017.51 1017.40 1017.47 1016.71 1015.85 1014.88 1014.79 1014.41 1013.54 1011.09 1007.87 1005.52 1005.29 1005.53 1006.03 1006.24 1006.34 1006.69 1006.92 1007.07 1006.86 1006.56 1006.14 1006.03 1006.16 1006.48 1006.32 1006.34 1006.48 1006.67 1006.81 1007.00 1007.17 1007.07 1006.95 1006.65 1006.43 1006.15 1005.98 1006.05
1024.40 1023.98 1023.58 1023.24 1022.77 1022.19 1021.64 1021.04 1020.34 1019.55 1018.77 1018.15 1017.64 1017.10 1016.80 1016.65 1016.90 1015.74 1014.35 1014.09 1014.82 1014.45 1013.28 1011.28 1008.21 1006.05 1005.47 1005.74 1005.99 1005.74 1006.12 1006.43 1006.50 1006.67 1006.46 1006.41 1006.18 1005.96 1006.11 1006.05 1006.30 1006.54 1006.76 1006.95 1007.11 1007.16 1007.25 1007.10 1007.06 1006.99 1006.74 1006.59 1006.62 1007.31
1024.09 1023.66 1023.20 1022.88 1022.53 1021.99 1021.36 1020.68 1019.86 1018.86 1017.76 1017.18 1016.78 1016.41 1016.44 1016.25 1015.02 1014.46 1014.26 1014.39 1014.39 1014.50 1013.10 1010.85 1008.65 1006.79 1005.59 1005.59 1005.65 1005.63 1005.65 1006.28 1005.87 1006.17 1006.10 1006.33 1006.18 1006.10 1005.99 1006.25 1006.62 1006.72 1006.93 1007.08 1007.00 1007.23 1007.32 1007.45 1007.40 1007.19 1007.10 1007.16 1007.36 1007.93
1023.76 1023.41 1022.98 1022.52 1022.17 1021.77 1021.24 1020.54 1019.61 1018.40 1016.98 1015.85 1015.94 1015.89 1014.87 1014.39 1014.13 1014.43 1014.36 1014.15 1013.99 1013.22 1012.77 1010.93 1008.97 1007.69 1006.55 1006.09 1005.88 1006.23 1006.19 1006.42 1006.17 1005.75 1005.38 1005.72 1006.09 1005.82 1006.05 1006.45 1006.73 1006.90 1007.07 1007.12 1007.38 1007.52 1007.55 1007.73 1007.77 1007.77 1007.67 1007.66 1007.73 1008.25
1023.40 1023.12 1022.79 1022.33 1021.90 1021.50 1021.02 1020.46 1019.69 1018.49 1016.17 1015.92 1016.22 1015.92 1014.97 1014.29 1014.00 1013.38 1012.82 1012.60 1012.03 1011.52 1010.66 1009.33 1008.62 1007.90 1006.78 1006.71 1006.81 1006.95 1006.92 1006.74 1006.41 1005.81 1005.73 1006.30 1006.41 1006.58 1006.51 1006.76 1006.96 1007.14 1007.15 1007.35 1007.56 1007.50 1007.49 1007.70 1007.96 1008.17 1008.19 1008.12 1007.98 1008.09
1023.04 1022.74 1022.44 1022.05 1021.63 1021.22 1020.76 1020.30 1019.86 1019.01 1018.41 1018.86 1018.92 1017.33 1015.48 1013.81 1013.05 1012.36 1011.48 1010.72 1010.23 1009.51 1008.51 1008.15 1007.84 1007.76 1007.35 1007.17 1007.28 1007.57 1007.50 1007.13 1006.56 1006.06 1006.27 1006.62 1007.27 1007.03 1007.00 1007.07 1007.27 1007.41 1007.48 1007.66 1007.60 1007.71 1007.65 1007.66 1007.99 1008.38 1008.36 1008.39 1008.44 1008.25
1022.61 1022.30 1021.96 1021.59 1021.19 1020.77 1020.37 1020.01 1019.72 1019.39 1018.61 1017.39 1017.83 1016.15 1013.99 1013.08 1012.30 1011.37 1010.28 1009.57 1009.19 1008.98 1008.91 1008.35 1007.93 1007.68 1007.66 1007.54 1007.67 1007.85 1007.79 1007.46 1006.86 1006.78 1006.66 1007.41 1007.53 1007.61 1007.72 1007.68 1007.73 1007.74 1007.82 1007.91 1007.92 1007.83 1007.86 1007.75 1007.95 1008.31 1008.55 1008.71 1008.72 1008.51
1022.14 1021.83 1021.44 1021.02 1020.65 1020.25 1019.90 1019.60 1019.39 1018.89 1018.39 1016.64 1015.60 1014.67 1013.06 1011.55 1010.51 1009.62 1009.34 1008.82 1008.84 1009.30 1009.16 1009.85 1009.26 1008.42 1008.29 1008.18 1008.00 1008.07 1007.67 1007.26 1007.00 1006.81 1007.07 1007.67 1007.88 1008.04 1007.97 1008.05 1008.18 1008.29 1008.33 1008.31 1008.24 1008.18 1008.17 1008.21 1008.27 1008.35 1008.64 1008.95 1009.08 1008.96
1021.67 1021.34 1020.90 1020.42 1019.97 1019.85 1019.66 1019.35 1019.08 1018.76 1017.62 1015.94 1014.81 1013.60 1011.49 1010.09 1009.49 1009.22 1009.06 1009.12 1008.96 1009.45 1009.78 1010.57 1010.53 1009.22 1009.31 1009.14 1008.34 1008.01 1007.82 1007.28 1006.56 1006.69 1007.17 1007.62 1007.89 1008.08 1008.26 1008.32 1008.44 1008.55 1008.61 1008.57 1008.41 1008.42 1008.48 1008.51 1008.64 1008.78 1008.89 1009.05 1009.24 1009.28
1021.29 1020.73 1019.91 1019.95 1019.86 1019.66 1019.39 1018.90 1018.20 1017.73 1016.55 1015.72 1014.36 1012.47 1011.11 1010.28 1009.68 1009.49 1009.36 1009.36 1009.85 1009.80 1009.89 1010.36 1010.22 1009.90 1009.59 1009.00 1008.15 1007.76 1007.12 1006.54 1006.73 1006.85 1007.19 1007.70 1008.03 1008.15 1008.26 1008.39 1008.54 1008.62 1008.70 1008.69 1008.66 1008.70 1008.70 1008.81 1008.91 1009.01 1009.13 1009.30 1009.53 1009.47
1021.15 1020.34 1019.86 1019.86 1019.73 1019.32 1018.93 1018.90 1017.77 1016.97 1015.77 1014.40 1012.85 1011.81 1011.41 1010.78 1010.20 1009.85 1009.73 1009.84 1010.21 1010.47 1011.03 1011.27 1011.40 1010.68 1010.35 1009.12 1007.96 1007.36 1006.99 1006.93 1006.74 1007.18 1007.42 1007.68 1007.94 1008.13 1008.34 1008.54 1008.66 1008.83 1009.00 1009.00 1009.04 1009.03 1009.02 1009.09 1009.03 1009.05 1009.24 1009.52 1009.51 1009.25
1020.68 1020.11 1020.00 1020.01 1019.76 1019.06 1018.32 1018.15 1017.39 1015.94 1014.67 1013.41 1012.37 1011.43 1010.88 1010.51 1010.14 1009.86 1009.68 1009.88 1010.32 1010.71 1011.42 1011.89 1011.57 1010.48 1009.44 1008.47 1007.30 1007.23 1007.07 1007.42 1007.39 1007.31 1007.47 1007.67 1007.99 1008.15 1008.30 1008.60 1008.89 1008.95 1009.13 1009.19 1009.25 1009.31 1009.27 1009.27 1009.40 1009.54 1009.69 1009.73 1009.50 1009.40
1020.09 1019.93 1019.94 1020.13 1020.11 1019.93 1018.82 1017.37 1016.82 1015.56 1013.60 1012.51 1011.52 1010.99 1010.61 1010.18 1009.88 1009.58 1009.51 1009.38 1009.36 1009.79 1010.73 1011.29 1011.15 1010.40 1009.77 1009.05 1008.06 1007.66 1007.74 1007.25 1007.10 1007.47 1007.55 1007.73 1007.92 1008.15 1008.32 1008.49 1008.79 1009.07 1009.33 1009.41 1009.42 1009.52 1009.75 1009.69 1009.73 1009.80 1009.91 1009.66 1009.71 1009.80
1019.72 1019.62 1019.61 1019.79 1020.02 1019.75 1018.58 1017.26 1016.41 1015.50 1013.99 1012.34 1011.61 1010.75 1010.30 1009.87 1009.32 1008.94 1009.03 1008.99 1009.04 1008.85 1009.29 1009.44 1009.35 1008.92 1008.91 1008.71 1008.13 1007.85 1007.80 1007.34 1007.00 1007.57 1007.67 1007.81 1007.78 1007.95 1008.17 1008.37 1008.70 1008.94 1009.16 1009.31 1009.29 1009.48 1009.79 1009.82 1009.81 1010.34 1010.29 1010.17 1010.11 1009.92
1019.28 1018.74 1018.78 1019.29 1019.52 1019.49 1018.72 1017.39 1016.40 1015.41 1014.20 1012.73 1011.05 1010.41 1009.84 1009.18 1008.68 1008.39 1008.31 1008.38 1008.39 1008.36 1008.18 1007.87 1008.12 1008.00 1007.87 1008.07 1008.07 1007.31 1007.51 1007.65 1008.15 1007.00 1007.14 1007.28 1007.51 1007.68 1007.83 1007.99 1008.23 1008.44 1008.70 1008.72 1008.88 1009.16 1009.27 1009.73 1009.92 1010.15 1009.78 1009.82 1009.91 1009.75
1018.77 1018.63 1018.73 1019.02 1018.88 1018.75 1018.27 1017.25 1016.39 1015.34 1014.48 1012.24 1010.98 1010.04 1009.10 1008.49 1008.01 1007.83 1007.67 1007.72 1007.46 1007.18 1007.15 1007.22 1007.13 1007.09 1007.10 1007.48 1007.37 1006.97 1007.34 1007.32 1007.85 1007.23 1006.61 1006.66 1006.81 1007.23 1007.30 1007.32 1007.53 1007.74 1007.99 1008.10 1008.15 1008.40 1008.83 1009.11 1009.12 1009.54 1009.73 1009.69 1009.55 1009.41
1018.74 1018.65 1018.52 1018.54 1018.42 1017.97 1017.28 1016.48 1016.11 1014.98 1013.77 1011.83 1010.63 1009.33 1007.97 1007.19 1006.86 1006.63 1006.84 1006.40 1006.20 1006.11 1006.18 1006.27 1006.30 1006.16 1006.26 1006.63 1006.81 1007.00 1007.40 1008.18 1007.71 1007.06 1006.09 1006.03 1006.08 1006.20 1006.35 1006.52 1006.74 1007.05 1007.15 1007.29 1007.42 1007.75 1008.04 1008.29 1008.31 1008.66 1008.82 1008.56 1008.74 1008.71
1018.62 1018.39 1018.03 1017.80 1017.68 1017.04 1016.45 1015.85 1015.29 1014.48 1013.31 1012.27 1010.84 1008.96 1007.71 1006.85 1006.56 1006.43 1006.12 1005.50 1005.11 1004.83 1005.18 1005.40 1005.47 1005.63 1005.63 1005.89 1006.50 1006.73 1006.74 1006.93 1006.64 1005.88 1005.27 1005.32 1005.51 1005.67 1005.62 1005.68 1005.77 1006.00 1006.09 1006.35 1006.84 1007.15 1007.24 1007.55 1007.62 1007.95 1008.02 1007.84 1008.05 1008.24
1018.60 1018.07 1017.76 1016.99 1016.64 1016.45 1015.67 1014.81 1014.19 1013.75 1012.66 1011.52 1010.41 1008.95 1007.55 1006.63 1006.41 1006.09 1005.36 1004.77 1004.63 1004.99 1005.07 1005.11 1005.30 1005.40 1005.09 1004.96 1005.27 1005.20 1004.96 1004.96 1005.19 1005.38 1004.70 1004.59 1004.75 1005.01 1005.17 1005.11 1005.17 1005.24 1005.39 1006.03 1006.34 1006.48 1006.68 1006.75 1006.87 1006.86 1006.84 1007.16 1007.48 1007.58
1017.85 1017.00 1016.65 1015.69 1015.38 1015.39 1014.76 1014.13 1013.45 1012.74 1011.94 1010.97 1009.86 1008.40 1007.10 1006.61 1006.31 1005.63 1005.19 1005.01 1004.97 1005.27 1005.47 1005.40 1005.60 1005.70 1005.24 1004.55 1004.14 1004.09 1004.34 1004.32 1004.46 1004.71 1004.14 1003.95 1004.12 1004.29 1004.50 1004.79 1004.92 1004.93 1004.90 1005.08 1005.42 1005.69 1006.10 1006.11 1006.23 1006.19 1006.41 1006.68 1006.97 1006.94
1016.91 1015.87 1015.07 1014.33 1014.43 1014.44 1014.22 1013.79 1013.39 1012.74 1011.62 1010.19 1008.67 1007.72 1007.42 1007.02 1005.94 1005.79 1005.34 1005.11 1005.28 1005.61 1005.38 1004.93 1005.36 1005.79 1005.43 1004.90 1003.93 1002.39 1002.44 1003.10 1003.28 1003.31 1003.16 1003.25 1003.32 1003.36 1003.60 1003.94 1004.23 1004.46 1004.36 1004.66 1004.93 1005.13 1005.51 1005.42 1005.56 1005.81 1005.70 1005.83 1005.92 1006.18
1015.85 1014.73 1013.77 1013.27 1013.32 1013.32 1013.32 1012.99 1012.33 1011.33 1010.10 1008.80 1008.11 1007.64 1007.38 1007.48 1006.51 1005.82 1005.56 1004.78 1004.69 1004.91 1005.12 1005.25 1005.13 1005.06 1004.78 1004.19 1003.75 1002.83 1002.36 1002.56 1002.64 1002.76 1002.74 1002.88 1003.03 1003.58 1003.41 1003.84 1003.91 1003.95 1004.41 1005.11 1005.01 1005.03 1005.00 1004.87 1004.67 1004.68 1004.93 1005.18 1005.39 1005.58
1014.68 1013.72 1013.08 1012.67 1012.57 1012.57 1012.33 1011.91 1010.93 1009.35 1008.75 1008.15 1007.54 1007.17 1007.33 1006.65 1005.61 1005.07 1004.68 1004.15 1003.63 1003.59 1003.95 1004.43 1004.38 1003.97 1003.56 1003.29 1003.20 1003.10 1003.13 1002.50 1002.53 1002.46 1002.55 1002.73 1003.49 1004.00 1004.09 1004.42 1004.33 1004.30 1004.96 1005.21 1005.06 1005.10 1005.57 1005.08 1004.62 1004.71 1004.70 1004.69 1004.75 1004.89
1012.72 1012.34 1012.15 1011.51 1011.16 1010.67 1010.11 1010.08 1009.10 1008.52 1007.84 1007.22 1006.75 1006.15 1005.48 1004.86 1004.33 1004.07 1003.98 1003.74 1003.20 1002.86 1002.84 1003.42 1003.70 1003.83 1003.90 1003.55 1002.79 1002.19 1001.91 1001.43 1001.28 1001.68 1002.18 1002.59 1003.20 1003.44 1003.33 1003.60 1003.84 1003.91 1004.45 1004.66 1004.77 1005.14 1005.11 1005.46 1005.31 1004.62 1004.56 1004.40 1004.46 1004.55
1011.33 1011.22 1010.93 1010.58 1009.91 1009.23 1008.60 1008.15 1007.64 1007.23 1006.76 1006.34 1005.93 1005.44 1004.76 1004.07 1003.41 1003.01 1002.89 1002.72 1002.51 1002.29 1002.51 1002.82 1002.87 1002.90 1003.12 1002.86 1002.33 1001.53 1000.87 1000.52 1000.51 1000.86 1001.41 1002.16 1002.78 1002.77 1002.61 1003.03 1003.87 1004.14 1004.42 1004.94 1005.23 1005.60 1005.80 1005.24 1004.62 1004.20 1004.05 1004.09 1004.07 1004.27
1010.53 1010.22 1009.97 1009.39 1008.66 1008.01 1007.44 1006.83 1006.23 1005.83 1005.33 1004.91 1004.41 1004.04 1003.59 1003.11 1002.45 1001.89 1001.50 1001.62 1001.74 1001.77 1001.98 1002.11 1002.14 1002.31 1002.37 1001.55 1001.46 1002.43 1002.19 1001.38 1000.69 1000.67 1000.69 1001.19 1001.81 1002.12 1002.51 1003.22 1003.66 1003.99 1004.81 1005.07 1005.40 1005.38 1004.88 1004.65 1004.38 1003.77 1003.60 1003.71 1003.71 1003.78
1009.44 1009.34 1009.08 1008.66 1007.46 1006.38 1005.38 1005.45 1004.90 1004.12 1003.65 1003.27 1002.91 1002.55 1002.28 1002.00 1001.59 1000.83 999.95 1000.09 1000.58 1000.96 1001.22 1001.25 1001.19 1000.90 1000.62 1000.45 1001.08 1002.18 1001.49 1001.42 1001.67 1002.21 1001.88 1001.29 1001.57 1002.03 1002.42 1002.67 1003.20 1003.22 1003.81 1004.22 1004.34 1004.05 1003.78 1003.86 1003.88 1003.58 1003.74 1003.21 1003.10 1003.17
Wind_Speed
15 16 16 16 16 15 15 15 15 15 16 17 17 18 18 18 16 9 9 9 5 4 12 8 11 7 8 5 4 8 8 8 3 0 3 6 5 6 4 4 4 2 2 3 4 6 6 10 9 7 3 3 4 6
15 16 15 17 16 15 16 15 16 16 15 16 17 17 16 15 14 12 5 8 9 4 8 15 18 17 16 12 4 5 3 5 2 3 5 5 4 5 5 4 9 6 4 1 2 4 7 11 10 5 5 5 6 7
14 14 14 15 17 18 15 16 16 17 16 16 18 17 16 13 11 6 6 6 5 5 9 8 11 16 15 13 8 1 4 4 4 1 1 3 2 2 3 4 5 3 7 3 5 6 6 10 8 8 7 8 7 5
15 15 15 15 16 17 18 17 16 16 19 17 17 17 16 14 11 8 4 6 5 5 5 4 9 2 6 6 7 6 6 7 4 2 1 2 2 3 3 3 3 2 4 1 2 6 4 9 6 4 8 8 7 8
14 15 17 17 17 17 18 18 18 18 19 18 18 18 16 15 13 8 7 6 8 4 5 9 16 13 8 5 6 4 4 4 2 3 2 4 4 2 3 4 4 4 4 3 3 4 4 6 9 9 8 8 10 6
13 14 14 16 17 19 18 19 20 20 21 21 20 18 16 13 9 5 3 4 4 4 3 5 6 7 3 5 5 5 4 4 3 2 4 4 3 4 2 1 5 6 9 8 4 6 4 6 6 8 8 11 13 8
13 13 13 15 17 19 19 19 21 21 23 21 19 18 14 9 4 4 3 2 7 4 3 5 5 6 6 6 4 4 5 3 3 3 3 3 4 1 3 3 1 7 8 7 7 8 7 7 7 8 9 13 11 6
13 13 13 15 16 17 20 21 22 24 24 22 20 18 12 5 6 6 2 10 2 3 3 4 5 2 5 4 3 5 4 4 3 4 2 3 4 2 3 5 8 7 7 7 6 5 5 7 9 10 11 14 12 7
14 14 13 14 16 17 19 21 24 27 29 23 19 13 2 3 3 3 3 4 2 3 3 4 4 3 4 4 2 2 2 1 3 4 5 3 3 3 4 8 8 7 4 4 6 7 7 7 8 7 8 11 11 11
14 14 15 15 16 17 20 21 23 27 30 26 4 3 3 2 7 3 2 3 4 4 4 5 4 5 3 3 2 2 1 3 2 5 2 4 4 2 11 9 7 7 5 5 5 5 6 6 7 8 8 10 12 10
14 16 17 17 18 19 18 20 21 26 17 4 5 4 6 1 3 4 4 4 5 4 5 5 8 7 5 2 2 3 2 3 2 5 3 2 2 3 8 8 6 4 5 7 7 6 6 5 7 7 7 9 10 11
15 16 16 17 18 19 18 18 17 10 6 8 7 8 5 4 4 5 4 4 5 5 4 3 4 5 0 2 1 1 1 3 4 2 1 1 1 5 7 7 7 7 8 7 6 7 6 5 6 6 5 7 7 9
15 14 16 18 19 18 17 16 16 13 15 3 4 5 4 4 3 5 5 5 3 5 6 3 2 2 1 0 1 2 2 5 1 2 3 2 3 6 6 6 6 7 7 7 7 7 9 4 4 5 6 6 8 8
14 15 16 16 17 18 16 10 11 9 4 4 3 6 4 6 5 5 4 2 2 1 3 4 6 3 1 1 1 2 4 1 3 3 3 4 5 4 3 4 5 5 6 6 7 5 5 7 6 6 6 6 7 7
14 15 17 17 8 4 8 11 13 4 4 4 4 5 7 7 1 5 4 3 1 4 3 5 7 2 3 4 3 2 2 5 4 2 3 5 5 5 2 2 2 4 5 5 6 5 6 6 5 5 5 5 6 6
12 16 4 2 5 8 11 12 4 3 3 4 6 7 8 8 5 4 4 1 4 3 1 2 1 3 1 4 3 5 4 2 2 3 5 5 5 4 2 3 3 3 4 5 5 5 5 5 5 4 4 6 5 6
7 4 5 2 8 13 10 3 3 5 5 5 6 7 9 9 9 4 4 1 1 2 3 3 1 3 2 4 5 4 3 3 0 6 6 6 6 4 4 2 3 5 5 5 5 5 3 3 4 4 3 3 4 6
4 3 10 9 9 6 2 5 4 4 7 7 9 8 8 2 4 6 3 2 3 2 4 3 4 4 3 4 1 2 3 3 2 4 5 5 6 5 4 4 5 4 4 4 4 4 3 4 4 2 3 2 2 4
6 7 9 6 3 2 4 3 3 5 6 7 8 7 7 5 5 4 4 4 4 5 6 2 3 3 4 4 2 6 6 1 3 4 5 6 7 6 4 4 5 4 5 3 3 3 4 4 3 2 3 3 3 3
13 14 13 8 4 3 4 4 2 4 5 5 7 8 6 5 6 5 4 5 3 3 4 5 5 5 6 4 4 1 3 3 1 6 4 3 4 6 5 5 4 6 4 4 3 4 6 1 2 3 1 3 4 4
3 3 6 7 4 3 3 3 3 4 5 5 8 6 4 5 7 8 7 7 6 5 7 6 5 5 6 3 4 2 5 3 9 3 4 4 5 5 4 4 6 4 4 2 3 3 4 4 3 2 3 3 4 5
2 4 1 4 2 4 4 3 4 5 4 7 10 8 7 8 6 5 3 5 7 8 7 6 6 8 7 4 5 2 1 8 13 6 3 3 4 6 5 5 5 4 5 4 4 4 5 3 5 5 6 6 5 6
1 1 2 3 4 3 5 2 4 4 5 5 7 5 5 3 3 2 3 5 6 7 8 8 9 8 5 6 3 3 6 5 12 12 5 4 5 4 4 5 6 5 5 5 4 3 2 11 8 5 5 7 6 5
1 2 3 3 5 3 2 3 3 3 4 3 5 5 6 3 2 2 4 5 7 4 6 8 7 5 4 6 8 6 5 7 7 6 5 4 3 4 4 4 3 7 7 6 6 5 7 5 8 7 8 7 5 4
2 3 3 4 3 4 4 3 4 4 4 3 4 5 4 2 3 4 6 3 3 3 0 3 2 5 6 6 8 8 9 6 6 5 4 4 5 3 2 3 3 2 3 8 6 5 4 6 5 6 5 5 8 7
3 4 5 5 4 4 3 3 3 3 2 4 5 5 3 2 3 5 2 2 2 1 2 1 3 4 8 7 6 9 11 10 7 8 8 6 7 7 5 4 4 4 3 4 5 3 7 7 6 6 6 14 11 5
4 5 5 5 2 1 3 3 4 4 4 5 5 1 2 3 3 2 4 3 3 0 4 5 1 3 5 9 11 3 9 10 6 3 5 5 5 6 7 6 5 4 3 2 4 2 9 9 8 10 7 7 7 6
5 5 6 5 4 3 2 2 4 4 5 5 1 2 3 3 3 2 3 3 3 6 8 9 8 8 8 8 6 5 4 4 4 6 3 6 3 6 8 5 3 7 5 7 5 6 5 6 7 8 6 5 6 6
5 6 5 9 6 4 5 5 6 5 2 3 5 2 4 5 4 4 4 6 7 7 3 4 2 4 6 5 4 5 5 6 8 8 6 5 6 3 5 4 6 5 4 4 8 9 8 5 3 2 3 3 5 6
9 8 5 7 8 7 6 8 8 9 9 8 8 9 7 4 3 5 5 8 8 5 1 5 7 5 6 7 8 10 10 10 8 8 8 5 6 5 4 4 4 4 5 5 7 9 11 4 4 3 3 3 2 3
2 1 5 9 12 10 10 11 10 11 10 11 10 10 10 10 9 7 7 7 7 3 3 3 2 5 4 5 7 6 3 3 5 10 12 8 9 6 5 2 4 2 3 4 4 7 10 11 7 6 6 7 7 5
4 8 9 13 12 10 10 11 11 11 10 10 11 10 9 8 11 8 8 7 7 5 5 6 4 7 4 11 4 5 9 8 5 8 11 7 8 8 6 6 6 8 7 7 5 3 3 6 8 6 6 7 8 7
7 8 8 7 6 5 6 6 5 7 10 12 11 10 9 9 12 8 5 7 5 5 6 7 7 8 7 7 10 14 20 0 15 17 12 9 13 10 7 6 6 8 7 4 8 10 12 13 16 12 10 9 10 11
Wind_Direction
342 342 341 337 334 330 330 330 329 331 335 335 334 334 336 340 348 350 279 279 290 279 290 287 331 336 331 340 0 320 338 1 339 229 215 246 255 269 309 313 339 52 71 26 28 46 283 349 44 63 236 270 277 339
336 339 339 343 338 329 328 328 328 327 327 332 332 331 332 335 343 345 278 347 332 253 268 304 283 267 264 276 312 323 292 301 327 26 10 327 338 3 359 330 4 39 79 110 52 170 82 56 82 46 17 338 326 331
323 330 334 333 335 334 329 326 323 326 328 325 326 325 324 324 329 345 291 308 292 261 277 235 245 253 228 228 233 225 302 351 17 125 241 269 317 29 336 304 35 27 48 83 75 29 69 72 51 27 336 295 284 325
322 322 328 329 329 328 328 325 319 319 325 318 319 320 319 314 309 304 278 308 281 280 280 313 1 295 194 254 183 225 258 307 306 347 249 267 293 289 294 285 50 296 12 99 122 31 35 52 56 358 318 331 347 330
317 319 325 328 329 328 325 325 324 319 318 316 315 314 311 309 303 284 252 246 242 286 311 301 305 273 206 217 161 229 261 267 289 312 264 257 256 21 340 34 7 37 343 59 76 35 79 341 338 343 358 334 323 312
318 321 325 324 326 328 326 323 321 320 320 317 311 310 307 305 312 292 240 189 273 275 283 293 328 280 134 132 178 211 224 240 216 223 269 285 350 92 79 269 327 36 60 51 42 22 8 319 357 353 336 327 323 358
315 320 322 323 326 327 324 322 318 316 317 311 310 308 303 291 255 246 341 330 356 320 261 281 279 199 176 175 195 220 220 222 186 237 242 252 286 166 174 213 271 61 62 46 32 23 354 350 322 330 342 339 340 23
309 313 319 319 321 323 325 322 319 315 312 311 309 305 302 276 250 278 229 236 195 268 270 278 272 219 165 215 217 202 192 181 219 212 268 249 302 231 209 212 98 78 53 41 15 337 338 359 7 7 356 350 355 63
309 311 315 316 319 320 325 323 320 317 313 310 305 301 247 211 236 67 100 123 240 290 299 269 289 289 345 269 165 325 65 347 244 180 222 172 230 251 138 110 89 81 67 17 2 357 356 358 338 333 347 342 0 22
309 315 318 320 319 321 326 322 322 320 312 311 278 212 199 35 137 151 117 195 195 205 225 253 301 283 288 341 348 73 204 202 260 238 195 170 220 121 98 96 87 67 39 2 340 346 346 335 338 14 356 354 355 17
312 316 316 318 319 321 321 322 325 326 310 346 338 357 324 154 246 213 237 207 181 222 211 230 221 260 318 19 354 36 338 319 273 255 151 164 184 122 103 102 93 49 21 25 351 342 336 20 23 7 8 354 358 355
308 311 312 314 315 315 315 318 325 326 355 318 294 281 254 245 224 252 222 226 204 241 187 225 218 196 78 39 349 17 353 323 255 343 135 186 114 76 74 69 51 41 24 346 328 345 356 39 26 353 5 2 354 339
306 303 306 309 309 306 306 310 310 294 297 225 208 242 200 221 17 223 226 215 230 336 12 325 253 56 146 236 227 143 213 225 309 269 204 109 96 73 59 43 28 12 1 352 348 334 330 58 6 25 17 19 1 334
296 298 300 298 301 300 302 308 312 321 282 250 259 302 237 211 233 202 290 208 80 29 53 19 314 64 353 2 156 220 244 250 249 236 173 148 129 107 66 48 42 1 346 341 341 5 26 0 22 24 45 45 11 342
296 297 294 296 286 321 319 313 305 293 277 274 271 243 244 258 13 301 311 337 316 127 79 49 275 118 31 314 250 206 260 238 231 128 144 138 136 115 89 62 35 3 346 335 322 325 12 7 14 7 12 44 9 332
305 297 223 203 327 320 315 312 271 240 258 253 250 264 284 296 324 348 328 51 8 350 263 145 22 43 249 246 228 215 234 196 151 142 131 130 122 141 135 83 50 2 343 330 349 9 353 9 358 333 333 66 7 322
295 255 174 255 317 297 286 263 255 219 245 230 243 235 249 272 271 299 295 81 34 64 41 34 97 250 343 280 213 211 303 30 161 99 118 140 155 137 104 72 56 38 29 3 359 355 31 13 350 4 75 40 326 299
237 334 53 13 336 314 273 204 255 244 242 243 263 267 270 244 292 286 308 111 130 139 118 190 286 281 269 287 111 202 107 73 41 131 148 144 135 124 125 92 82 63 34 11 23 7 1 37 55 49 29 7 113 92
265 296 319 340 352 321 277 235 216 257 246 266 269 273 273 278 271 235 268 276 221 165 125 145 208 231 248 319 328 32 329 119 128 225 124 129 144 139 131 122 141 99 76 70 68 84 69 53 74 65 31 39 63 62
268 264 261 250 196 240 257 254 274 267 271 310 297 274 264 254 264 246 238 253 264 222 199 196 199 206 203 265 315 55 347 306 148 125 148 160 146 147 205 181 164 146 159 196 155 138 125 21 7 83 351 24 26 299
235 246 223 190 190 223 294 292 256 247 269 257 285 285 260 273 256 251 239 224 228 221 244 221 194 246 250 208 261 54 357 31 347 123 176 168 169 171 193 163 162 183 205 155 132 155 162 174 206 232 234 214 230 248
238 181 135 190 220 196 246 237 270 313 266 263 282 274 255 249 243 244 229 228 230 231 227 243 249 213 236 202 232 171 78 7 324 265 119 137 140 184 192 191 185 206 153 179 176 206 154 157 178 193 211 242 260 265
252 215 196 176 229 221 259 234 242 236 260 292 315 277 249 241 255 190 233 210 221 218 227 237 234 231 189 182 166 175 154 311 294 266 191 195 194 181 188 182 183 210 168 184 171 190 239 164 195 184 219 245 232 225
170 226 221 212 200 255 237 233 217 256 263 266 260 276 285 251 223 216 247 244 246 221 198 222 215 215 226 203 180 195 190 200 245 282 194 210 185 203 202 190 202 177 200 166 175 190 204 187 199 197 209 216 214 225
212 241 213 239 206 225 241 241 209 224 262 260 281 271 265 305 235 221 236 273 141 131 152 79 29 293 238 209 187 205 206 209 221 257 238 177 155 197 248 162 144 166 141 162 191 197 198 179 200 224 233 161 200 175
230 216 205 212 187 217 226 264 243 274 268 250 248 260 291 299 254 255 2 13 352 43 6 5 60 351 321 303 244 184 201 222 224 230 229 205 183 200 203 188 185 226 205 195 178 211 175 200 209 226 158 168 221 191
244 243 212 226 195 189 257 242 251 259 250 258 240 315 65 283 282 3 318 353 70 44 299 315 46 265 284 298 301 165 175 191 201 237 199 214 239 203 190 178 170 208 203 199 229 154 197 209 198 217 216 188 196 191
244 271 234 209 206 217 265 249 248 240 242 240 339 299 349 352 287 280 262 258 234 185 217 214 211 216 245 260 276 280 168 196 223 264 222 212 203 55 74 54 31 155 66 17 3 317 284 244 217 182 183 202 182 187
232 241 247 249 215 196 217 223 237 239 222 289 291 180 204 225 240 223 246 254 268 262 70 145 240 251 284 279 275 266 273 230 213 208 239 248 101 26 54 55 57 69 76 357 3 17 352 313 116 44 16 220 210 183
237 204 224 241 232 225 214 206 249 264 272 284 295 292 277 262 244 240 249 268 270 283 336 136 189 221 255 255 273 269 255 221 182 181 200 226 150 186 172 203 176 139 90 15 339 316 327 281 276 211 219 245 261 155
242 221 237 242 256 259 258 251 248 254 263 271 272 275 281 280 275 260 263 266 285 299 306 232 185 247 232 275 271 309 297 195 193 150 134 154 167 201 222 115 90 98 154 202 200 272 283 292 253 221 213 216 236 240
239 241 250 264 269 268 262 257 256 257 261 257 252 244 255 264 271 273 245 239 241 223 224 256 191 238 249 283 266 354 307 303 352 161 173 179 167 179 176 137 123 102 56 322 255 217 316 318 279 235 202 218 218 227
214 236 248 270 251 226 220 204 243 250 242 246 251 253 251 251 256 259 244 205 193 194 214 233 243 233 238 190 174 188 228 142 49 27 24 123 166 169 193 173 165 168 170 233 222 199 187 199 260 275 273 233 208 217